Tracking 19638 objects as of 21-May-2019
HD Live streaming from Space Station
objects crossing your sky now

INSAT 3C

Track INSAT 3C now!
INSAT 3C is classified as:


NORAD ID: 27298
Int'l Code: 2002-002A
Perigee: 36,037.4 km
Apogee: 36,099.5 km
Inclination: 2.2 °
Period: 1,450.2 minutes
Semi major axis: 42439 km
RCS: 10.7943 m2 (large)
Launch date: January 23, 2002
Source: India (IND)
Launch site: FRENCH GUIANA (FRGUI)

Voice, video and digital data services to India and neighboring countries.
aabbcc
Your satellite tracking list
Your tracking list is empty




NASA's NSSDC Master Catalog

Two Line Element Set (TLE):
1 27298U 02002A   19140.43821000 -.00000129  00000-0  00000+0 0  9997
2 27298   2.1712  87.4639 0007324  59.4426 171.5585  0.99299732 63377
Source of the keplerian elements: AFSPC